Regional Weather Roundup
Issued by NWS Jackson, KY

Home | Current Version | Previous Version | Text Only | Print | Product List | Glossary Off
Versions: 1 2 3 4 5 6 7 8 9 10 11 12 13 14 15 16 17 18 19 20 21 22 23 24 25 26 27 28 29 30 31 32 33 34 35 36 37 38 39 40 41 42 43 44 45 46 47 48 49 50

416
ASUS43 KJKL 220010
RWRJKL

EAST KENTUCKY HOURLY WEATHER ROUNDUP
NATIONAL WEATHER SERVICE JACKSON KY
700 PM EST TUE FEB 21 2017

NOTE: "FAIR" INDICATES FEW OR NO CLOUDS BELOW 12,000 FEET WITH
NO SIGNIFICANT WEATHER AND/OR OBSTRUCTIONS TO VISIBILITY.

* THESE REPORTS ARE NOT UNDER NWS QUALITY CONTROL AND MAY NOT
  REPORT WEATHER SUCH AS PRECIPITATION AND FOG.

KYZ079-080-083-085-087-088-110-112-115-119-120-220100
...EASTERN KENTUCKY...

CITY           SKY/WX    TMP DP  RH WIND       PRES   REMARKS
JACKSON        CLOUDY    68  42  38 CALM      30.00R
6HR MIN TEMP:  68; 6HR MAX TEMP:  75;

LONDON         LGT RAIN  64  49  57 SW5       30.00R
6HR MIN TEMP:  63; 6HR MAX TEMP:  71; 6HR PCP: TRACE;

SOMERSET*      CLOUDY    63  50  63 S7        30.02R
MONTICELLO*    LGT RAIN  59  54  83 VRB5      30.03
6HR MIN TEMP:  59; 6HR MAX TEMP:  71; 6HR PCP:  0.01;

WILLIAMSBURG*  CLOUDY    64  46  52 S10       30.01R
MIDDLESBORO*   CLOUDY    66  46  48 CALM      30.01S
6HR MIN TEMP:  66; 6HR MAX TEMP:  72;

HARLAN APT*    CLOUDY    64  41  42 E3        30.02R
PIKE CO APT*   CLOUDY    67  38  34 CALM      30.01R
BIG SANDY APT* MOCLDY    67  40  36 CALM      30.00R
6HR MIN TEMP:  67; 6HR MAX TEMP:  74;

MOREHEAD APT*  CLOUDY    68  45  42 CALM      30.00R
ASHLAND*       CLOUDY    63  48  59 N3        29.96S
$$

KYZ035-036-041-042-044-050-067-078-099-220100
...CENTRAL KENTUCKY...

CITY           SKY/WX    TMP DP  RH WIND       PRES   REMARKS
MT STERLING*   CLOUDY    63  48  59 S5G16     30.01R
FLEMING/MASON* LGT RAIN  61  53  75 CALM      30.02R
DANVILLE*      CLOUDY    63  50  63 W6        30.02R
LEXINGTON      LGT RAIN  67  49  52 SW13      29.99R
6HR MIN TEMP:  65; 6HR MAX TEMP:  71; 6HR PCP: TRACE;

FRANKFORT      CLOUDY    63  52  67 CALM      29.97R
6HR MIN TEMP:  63; 6HR MAX TEMP:  72; 6HR PCP: TRACE;

LOUISVILLE     CLOUDY    69  49  48 S12       29.96R
6HR MIN TEMP:  66; 6HR MAX TEMP:  72;

LEBANON*       CLOUDY    59  57  94 S8        30.02R FOG
GLASGOW*       CLOUDY    63  51  65 S8        29.98R
BOWLING GREEN  CLOUDY    66  53  63 SE14      29.96R
6HR MIN TEMP:  66; 6HR MAX TEMP:  71; 6HR PCP: TRACE;

$$

KYZ091>093-OHZ055-061-077-WVZ005-015-034-035-042-220100
...SOUTHERN OHIO/WEST VIRGINIA...

CITY           SKY/WX    TMP DP  RH WIND       PRES   REMARKS
COVINGTON      LGT RAIN  56  55  97 CALM      29.99R
COLUMBUS       LGT RAIN  62  51  67 S5        29.98S
DAYTON         CLOUDY    60  48  64 S9        29.98R
WILMINGTON     LGT RAIN  54  53  97 CALM      30.00R
HUNTINGTON     PTCLDY    69  40  34 SE3       29.98R
CHARLESTON     PTCLDY    67  39  35 NE3       30.00R
PINEVILLE*     CLOUDY    60  42  50 MISG      30.06S
BECKLEY        MOCLDY    58  40  51 SE12G22   30.06R
BLUEFIELD      MOCLDY    54  39  57 S10       30.08R
LOGAN CO APT*    N/A     66  34  30 CALM      30.01R
$$

VAZ002-007-008-TNZ017-027-036-066-071-220100
...SOUTHWEST VIRGINIA/EAST TENNESSEE...

CITY           SKY/WX    TMP DP  RH WIND       PRES   REMARKS
WISE*          CLOUDY    61  41  48 CALM      30.07R
JONESVILLE*    MOCLDY    64  45  48 CALM      30.05R
ABINGDON*      CLOUDY    62  43  49 S5        30.07R
BRISTOL        CLOUDY    63  44  50 S7        30.05R
MORRISTOWN*    MOCLDY    64  45  48 CALM      30.01R
SEVIERVILLE*   CLOUDY    64  45  48 CALM      30.00S
KNOXVILLE      CLOUDY    65  45  48 S6        29.99S
LAFOLLETTE*    CLOUDY    61  52  72 CALM      30.04R
OAK RIDGE      LGT RAIN  62  50  64 W3        30.02S
CROSSVILLE     LGT RAIN  53  51  93 CALM      30.02F
NASHVILLE      CLOUDY    62  54  74 SE9       29.96R
$$

...KEY TO REMARKS...
VSB - VISIBILITY IN MILES
WCI - WIND CHILL INDEX
HX  - HEAT INDEX

$$




USA.gov is the U.S. government's official web portal to all federal, state and local government web resources and services.